Zurück zum Katalog

STARLINK-3648

AktivKommunikationVLEO
NORAD 51993·PAYLOAD·🇺🇸 United States

Gestartet Mar 9, 2022 von Cape Canaveral Space Force Station

Loading…

Nächste Überflüge (nächste 24 Stunden)

TLE

AktuellSource: CelesTrak SupGP

Epoche: Sep 15, 2026, 01:50 UTC

1 51993C 22025AP  26258.07687500 -.00035033  00000+0 -10020-2 0  2582
2 51993  53.1580 260.8018 0001254  97.3941 173.3924 15.35425778    18

Verfolge STARLINK-3648 in Echtzeit mit AllMySat

Download on the App Store